This demonstration page uses our WeatherBlox Daily Observations layout. Learn more.

Hourly Observations for December 29, 2015

Temp ( °F °C ) Dew Point ( °F °C ) Humidity (%) Winds ( mph kmh ) Pressure ( in mb ) Visibility ( mi km ) Precip ( " mm )
12:15 am 00:15 Cloudy 21 -6.3 17 -8.4 85 85 N 5 7 30.06 1018 10 16.0934 0 0
12:35 am 00:35 Cloudy 21 -6.2 17 -8.5 84 84 NNW 6 9 30.06 1018 10 16.0934 0 0
12:55 am 00:55 Cloudy 21 -6.1 17 -8.3 85 85 NNW 6 9 30.06 1018 10 16.0934 0 0
1:15 am 01:15 Cloudy 21 -6.1 17 -8.4 84 84 NNW 6 9 30.06 1018 10 16.0934 0 0
1:35 am 01:35 Cloudy 21 -6 17 -8.2 85 85 NNW 6 9 30.06 1018 10 16.0934 0 0
1:55 am 01:55 Cloudy 21 -6 17 -8.1 85 85 N 6 9 30.06 1018 10 16.0934 0 0
2:15 am 02:15 Cloudy 21 -6 17 -8.2 85 85 N 5 7 30.06 1018 10 16.0934 0 0
2:35 am 02:35 Cloudy 21 -6.1 17 -8.1 86 86 N 7 11 30.06 1018 10 16.0934 0 0
2:55 am 02:55 Cloudy 21 -6.2 17 -8.1 87 87 N 5 7 30.09 1019 10 16.0934 0 0
3:15 am 03:15 Cloudy 21 -6.1 18 -8 87 87 N 5 7 30.09 1019 10 16.0934 0 0
3:35 am 03:35 Cloudy 21 -6.1 18 -8 87 87 NNW 6 9 30.09 1019 10 16.0934 0 0
3:55 am 03:55 Cloudy 21 -6 18 -7.7 88 88 N 3 6 30.09 1019 10 16.0934 0 0
4:15 am 04:15 Cloudy 21 -6 18 -7.7 88 88 NNW 5 7 30.09 1019 10 16.0934 0 0
4:35 am 04:35 Cloudy 21 -6 18 -8 86 86 N 6 9 30.09 1019 10 16.0934 0 0
4:55 am 04:55 Cloudy 21 -6 18 -8 86 86 N 5 7 30.09 1019 10 16.0934 0 0
5:15 am 05:15 Cloudy 21 -6 17 -8.1 85 85 N 6 9 30.12 1020 10 16.0934 0 0
5:35 am 05:35 Cloudy 21 -6 18 -8 86 86 N 7 11 30.12 1020 10 16.0934 0 0
5:55 am 05:55 Cloudy 21 -6.2 18 -8 87 87 N 5 7 30.12 1020 10 16.0934 0 0
6:15 am 06:15 Cloudy 20 -6.5 18 -8 89 89 N 3 6 30.12 1020 10 16.0934 0 0
6:35 am 06:35 Cloudy 19 -7 17 -8.3 91 91 N 6 9 30.15 1021 10 16.0934 0 0
6:55 am 06:55 Mostly Cloudy 19 -7.5 16 -8.8 91 91 N 5 7 30.15 1021 10 16.0934 0 0
7:15 am 07:15 Partly Cloudy 18 -7.9 16 -9.1 91 91 N 5 7 30.18 1022 10 16.0934 0 0
7:35 am 07:35 Clear 17 -8.2 15 -9.3 92 92 Calm 30.18 1022 10 16.0934 0 0
7:55 am 07:55 Partly Cloudy 17 -8.3 15 -9.4 92 92 Calm 30.18 1022 10 16.0934 0 0
8:15 am 08:15 Mostly Cloudy 17 -8.5 15 -9.5 93 93 Calm 30.18 1022 10 16.0934 0 0
8:35 am 08:35 Mostly Cloudy 19 -7.5 16 -8.7 91 91 Calm 30.21 1023 10 16.0934 0 0
8:55 am 08:55 Cloudy 20 -6.6 17 -8.2 89 89 Calm 30.21 1023 10 16.0934 0 0
9:15 am 09:15 Cloudy 21 -6.1 17 -8.6 83 83 N 5 7 30.18 1022 10 16.0934 0 0
9:35 am 09:35 Cloudy 22 -5.8 17 -8.6 81 81 NNE 5 7 30.18 1022 10 16.0934 0 0
9:55 am 09:55 Cloudy 22 -5.5 17 -8.5 80 80 Calm 30.21 1023 10 16.0934 0 0
10:15 am 10:15 Cloudy 23 -5.2 16 -8.9 76 76 Calm 30.21 1023 10 16.0934 0 0
10:35 am 10:35 Cloudy 23 -5 16 -8.9 74 74 N 3 6 30.21 1023 10 16.0934 0 0
10:55 am 10:55 Cloudy 23 -4.8 16 -9 73 73 NNE 3 6 30.24 1024 10 16.0934 0 0
11:15 am 11:15 Cloudy 24 -4.6 16 -8.9 72 72 NE 3 6 30.24 1024 10 16.0934 0 0
11:35 am 11:35 Cloudy 24 -4.4 16 -9 71 71 N 5 7 30.24 1024 10 16.0934 0 0
11:55 am 11:55 Cloudy 24 -4.2 16 -8.8 71 71 Calm 30.21 1023 10 16.0934 0 0
12:15 pm 12:15 Cloudy 25 -4 16 -9 69 69 NE 5 7 30.21 1023 10 16.0934 0 0
12:35 pm 12:35 Cloudy 25 -4 16 -9.1 68 68 Calm 30.21 1023 10 16.0934 0 0
12:55 pm 12:55 Cloudy 25 -3.7 16 -8.8 68 68 Calm 30.21 1023 10 16.0934 0 0
1:15 pm 13:15 Cloudy 26 -3.5 16 -8.8 67 67 Calm 30.21 1023 10 16.0934 0 0
1:35 pm 13:35 Cloudy 26 -3.4 17 -8.5 68 68 Calm 30.21 1023 10 16.0934 0 0
1:55 pm 13:55 Cloudy 26 -3.3 17 -8.5 68 68 Calm 30.21 1023 10 16.0934 0 0
2:15 pm 14:15 Cloudy 26 -3.3 17 -8.5 68 68 Calm 30.21 1023 10 16.0934 0 0
2:35 pm 14:35 Cloudy 26 -3.3 17 -8.5 68 68 Calm 30.21 1023 10 16.0934 0 0
2:55 pm 14:55 Cloudy 27 -3 17 -8.1 68 68 Calm 30.21 1023 10 16.0934 0 0
3:15 pm 15:15 Cloudy 27 -3 17 -8.3 67 67 Calm 30.21 1023 10 16.0934 0 0
3:35 pm 15:35 Cloudy 27 -3 17 -8.3 67 67 Calm 30.21 1023 10 16.0934 0 0
3:55 pm 15:55 Cloudy 27 -3 18 -8 69 69 Calm 30.21 1023 10 16.0934 0 0
4:15 pm 16:15 Cloudy 26 -3.1 18 -7.7 71 71 Calm 30.21 1023 10 16.0934 0 0
4:35 pm 16:35 Cloudy 26 -3.3 19 -7.5 73 73 Calm 30.21 1023 10 16.0934 0 0
4:55 pm 16:55 Cloudy 26 -3.3 19 -7.1 75 75 NNW 3 6 30.21 1023 10 16.0934 0 0
5:15 pm 17:15 Cloudy 26 -3.5 20 -6.8 78 78 Calm 30.21 1023 10 16.0934 0 0
5:35 pm 17:35 Cloudy 26 -3.5 21 -6.2 82 82 N 3 6 30.21 1023 10 16.0934 0 0
5:55 pm 17:55 Cloudy 26 -3.5 21 -6.2 82 82 Calm 30.21 1023 10 16.0934 0 0
6:15 pm 18:15 Cloudy 26 -3.5 21 -6 83 83 N 3 6 30.24 1024 10 16.0934 0 0
6:35 pm 18:35 Cloudy 26 -3.5 21 -6 83 83 N 3 6 30.24 1024 10 16.0934 0 0
6:55 pm 18:55 Cloudy 25 -3.7 21 -6 84 84 NNE 3 6 30.24 1024 10 16.0934 0 0
7:15 pm 19:15 Cloudy 25 -3.7 21 -6.1 84 84 NE 3 6 30.24 1024 10 16.0934 0 0
7:35 pm 19:35 Cloudy 25 -3.7 21 -6.1 84 84 NNE 3 6 30.24 1024 10 16.0934 0 0
7:55 pm 19:55 Cloudy 26 -3.6 20 -6.5 81 81 Calm 30.24 1024 10 16.0934 0 0
8:15 pm 20:15 Cloudy 25 -3.7 20 -6.6 81 81 NNE 3 6 30.24 1024 10 16.0934 0 0
8:35 pm 20:35 Cloudy 25 -3.8 20 -6.6 81 81 NNE 5 7 30.24 1024 10 16.0934 0 0
8:55 pm 20:55 Cloudy 25 -4 20 -6.5 83 83 NNE 6 9 30.24 1024 10 16.0934 0 0
9:15 pm 21:15 Cloudy 25 -4 20 -6.6 82 82 NNE 6 9 30.24 1024 10 16.0934 0 0
9:35 pm 21:35 Cloudy 24 -4.2 20 -6.5 84 84 NNE 3 6 30.27 1025 10 16.0934 0 0
9:55 pm 21:55 Cloudy 24 -4.3 20 -6.5 85 85 NE 5 7 30.27 1025 10 16.0934 0 0
10:15 pm 22:15 Cloudy 24 -4.2 20 -6.5 84 84 NE 5 7 30.27 1025 10 16.0934 0 0
10:35 pm 22:35 Cloudy 24 -4.3 19 -7 82 82 Calm 30.27 1025 10 16.0934 0 0
10:55 pm 22:55 Cloudy 24 -4.2 19 -7 81 81 Calm 30.27 1025 10 16.0934 0 0
11:15 pm 23:15 Cloudy 24 -4.5 19 -7 83 83 Calm 30.27 1025 7 11.26538 0 0
11:35 pm 23:35 Cloudy with Mist and Fog 24 -4.6 21 -6 90 90 Calm 30.27 1025 3 4.82802 0 0
11:55 pm 23:55 Cloudy with Light Snow 24 -4.7 22 -5.8 92 92 Calm 30.27 1025 3 4.82802 0 0

Powered by AerisWeather